Temp
-12 -12 -9 -10 -10 -11 -11 -11 -11 -10 -11 -11 -10 -9 -9 -10 -9 -10 -10 -11 -11 -11 -12 -12 -13 -13 -13 -13 -13 -13 -13 -13 -13 -13 -13 -13 -13 -13 -13 -12 -13 -13 -13 -13
-12 -9 -11 -12 -12 -12 -12 -11 -11 -10 -11 -11 -10 -10 -10 -10 -10 -10 -10 -10 -11 -11 -11 -13 -13 -13 -14 -14 -13 -13 -13 -13 -13 -13 -13 -13 -13 -13 -13 -13 -13 -13 -13 -13
-11 -11 -12 -12 -12 -12 -11 -11 -11 -10 -11 -12 -10 -9 -10 -10 -10 -10 -10 -11 -11 -11 -12 -13 -13 -13 -13 -14 -13 -13 -13 -12 -12 -12 -13 -13 -13 -13 -13 -13 -13 -13 -13 -13
-11 -12 -12 -12 -11 -12 -11 -12 -12 -11 -11 -11 -11 -10 -10 -11 -10 -10 -10 -10 -10 -11 -13 -13 -13 -13 -13 -13 -13 -12 -12 -12 -12 -12 -12 -13 -13 -13 -13 -13 -12 -13 -13 -13
-9 -11 -11 -11 -11 -13 -11 -13 -12 -11 -11 -11 -11 -10 -8 -11 -10 -11 -10 -10 -11 -11 -11 -13 -13 -13 -12 -13 -12 -12 -12 -12 -12 -12 -12 -12 -12 -13 -13 -13 -13 -13 -13 -13
-11 -11 -12 -12 -12 -13 -13 -13 -12 -11 -11 -10 -10 -11 -9 -11 -11 -10 -10 -11 -11 -11 -12 -12 -12 -12 -12 -12 -12 -12 -12 -12 -12 -12 -12 -12 -12 -13 -13 -13 -13 -13 -13 -14
-11 -11 -10 -11 -11 -12 -13 -12 -11 -11 -10 -9 -10 -12 -10 -10 -10 -10 -11 -11 -10 -11 -12 -11 -11 -12 -12 -12 -12 -12 -12 -12 -12 -12 -12 -12 -12 -12 -13 -13 -13 -13 -14 -14
-11 -11 -10 -10 -10 -10 -10 -11 -10 -10 -10 -9 -10 -11 -10 -10 -9 -11 -11 -11 -11 -12 -11 -12 -11 -11 -12 -12 -12 -11 -12 -12 -12 -12 -12 -12 -12 -12 -13 -13 -13 -13 -14 -14
-12 -11 -11 -11 -11 -11 -10 -10 -11 -11 -10 -10 -11 -10 -10 -9 -10 -11 -11 -11 -11 -12 -12 -12 -11 -11 -12 -11 -12 -11 -11 -12 -11 -12 -12 -12 -12 -12 -13 -13 -13 -13 -13 -14
-13 -12 -12 -12 -12 -11 -11 -11 -11 -10 -10 -11 -9 -9 -9 -10 -10 -11 -11 -11 -12 -13 -12 -11 -11 -11 -12 -12 -11 -11 -11 -12 -12 -12 -11 -12 -12 -12 -12 -13 -13 -13 -13 -14
-14 -13 -12 -12 -10 -11 -11 -11 -11 -11 -10 -10 -9 -9 -10 -10 -10 -10 -11 -12 -13 -12 -11 -11 -11 -11 -11 -12 -11 -11 -12 -12 -12 -12 -12 -12 -12 -12 -12 -12 -13 -13 -13 -13
-13 -13 -13 -11 -11 -11 -11 -11 -10 -10 -9 -10 -9 -9 -10 -10 -10 -10 -11 -13 -12 -11 -11 -11 -10 -11 -11 -12 -12 -12 -12 -12 -13 -13 -12 -12 -12 -12 -12 -13 -12 -13 -13 -13
-13 -12 -12 -13 -12 -12 -10 -10 -10 -11 -11 -10 -10 -10 -10 -9 -10 -10 -11 -13 -11 -11 -11 -10 -11 -11 -11 -12 -12 -12 -12 -12 -12 -12 -12 -12 -12 -12 -13 -12 -12 -13 -12 -13
-12 -11 -11 -11 -10 -10 -10 -10 -10 -11 -11 -10 -9 -10 -11 -11 -10 -10 -12 -12 -12 -11 -10 -10 -11 -11 -11 -12 -12 -11 -12 -12 -12 -12 -12 -12 -12 -12 -12 -12 -13 -13 -13 -13
-12 -11 -11 -11 -11 -11 -10 -10 -10 -9 -9 -10 -9 -10 -11 -10 -10 -11 -12 -11 -12 -11 -10 -10 -11 -11 -11 -12 -12 -11 -12 -12 -12 -12 -12 -12 -12 -12 -12 -13 -13 -13 -13 -13
-12 -11 -11 -11 -11 -11 -11 -11 -11 -11 -10 -11 -11 -11 -11 -11 -10 -10 -11 -11 -12 -11 -10 -10 -11 -10 -11 -12 -12 -11 -11 -11 -12 -12 -12 -12 -12 -12 -13 -12 -13 -13 -13 -13
-12 -12 -11 -11 -12 -11 -11 -11 -11 -11 -11 -11 -10 -10 -11 -11 -10 -10 -11 -11 -11 -11 -9 -10 -11 -11 -11 -11 -12 -11 -11 -11 -12 -12 -12 -12 -12 -12 -12 -13 -13 -13 -13 -14
-13 -12 -11 -11 -12 -12 -9 -11 -11 -11 -11 -11 -11 -11 -11 -12 -11 -11 -11 -11 -12 -11 -10 -10 -10 -11 -11 -11 -11 -11 -11 -11 -12 -12 -12 -12 -12 -12 -12 -12 -13 -13 -13 -13
-14 -13 -11 -12 -12 -11 -11 -12 -12 -12 -12 -12 -12 -12 -12 -12 -12 -11 -11 -11 -12 -11 -11 -10 -10 -11 -11 -11 -11 -11 -11 -11 -12 -12 -12 -12 -12 -12 -12 -12 -13 -13 -13 -13
-15 -14 -13 -12 -13 -12 -12 -12 -12 -12 -12 -12 -12 -12 -12 -12 -11 -10 -11 -11 -11 -11 -11 -10 -10 -11 -11 -11 -12 -12 -12 -11 -12 -12 -12 -12 -12 -12 -12 -12 -12 -12 -13 -13
-16 -15 -14 -15 -14 -13 -13 -12 -13 -13 -11 -11 -11 -12 -13 -12 -10 -10 -10 -11 -11 -11 -11 -10 -10 -11 -11 -11 -11 -12 -12 -12 -12 -12 -12 -12 -12 -12 -12 -13 -13 -13 -12 -13
-16 -16 -16 -16 -14 -13 -13 -13 -13 -13 -12 -11 -11 -11 -12 -11 -10 -11 -10 -11 -10 -10 -11 -10 -10 -11 -11 -11 -11 -12 -12 -12 -12 -12 -12 -12 -13 -13 -13 -13 -13 -13 -13 -12
-16 -15 -16 -15 -15 -14 -14 -13 -13 -13 -12 -11 -11 -11 -11 -11 -11 -11 -10 -10 -10 -10 -11 -11 -10 -10 -11 -11 -11 -12 -12 -12 -12 -12 -12 -12 -12 -13 -13 -13 -13 -13 -13 -13
-17 -16 -15 -15 -15 -14 -14 -13 -13 -13 -12 -12 -12 -11 -11 -11 -11 -10 -11 -11 -11 -10 -11 -11 -10 -10 -10 -11 -12 -12 -12 -12 -12 -12 -12 -12 -12 -13 -13 -13 -13 -12 -12 -12
-17 -15 -15 -15 -14 -15 -14 -13 -13 -13 -13 -12 -12 -12 -11 -10 -11 -10 -11 -11 -11 -11 -11 -10 -11 -10 -10 -11 -11 -11 -12 -12 -12 -12 -12 -12 -12 -12 -13 -13 -12 -12 -13 -13
-18 -16 -16 -15 -14 -14 -14 -14 -13 -14 -13 -12 -12 -12 -11 -11 -11 -10 -10 -11 -11 -11 -11 -11 -11 -10 -10 -10 -11 -11 -11 -12 -12 -12 -12 -12 -12 -12 -13 -13 -13 -13 -13 -13
Height
5746 5749 5747 5756 5764 5768 5775 5775 5780 5788 5792 5783 5784 5783 5791 5788 5784 5782 5782 5783 5780 5778 5777 5777 5776 5774 5770 5766 5762 5758 5755 5750 5746 5742 5738 5734 5729 5724 5719 5712 5706 5700 5695 5692
5738 5732 5746 5752 5754 5756 5762 5766 5772 5780 5787 5776 5780 5777 5781 5781 5779 5779 5779 5778 5775 5774 5774 5773 5772 5769 5766 5762 5758 5754 5750 5745 5743 5739 5734 5730 5725 5720 5713 5706 5702 5697 5692 5688
5728 5740 5739 5739 5742 5745 5750 5757 5769 5774 5778 5771 5770 5770 5775 5776 5774 5775 5775 5772 5771 5770 5769 5768 5767 5765 5761 5758 5754 5750 5745 5742 5740 5735 5731 5726 5722 5718 5711 5704 5699 5693 5688 5683
5719 5729 5730 5730 5732 5738 5742 5756 5763 5766 5767 5768 5764 5758 5769 5769 5769 5769 5768 5767 5767 5766 5765 5764 5763 5759 5756 5754 5750 5745 5741 5740 5736 5732 5728 5723 5719 5714 5708 5702 5696 5690 5684 5678
5711 5721 5726 5727 5733 5735 5742 5751 5755 5757 5756 5756 5760 5754 5764 5764 5764 5766 5763 5763 5763 5763 5761 5759 5756 5754 5752 5749 5746 5741 5739 5736 5733 5729 5725 5720 5717 5711 5704 5699 5692 5687 5682 5677
5701 5709 5714 5721 5726 5727 5735 5741 5745 5745 5746 5740 5756 5752 5760 5760 5761 5763 5761 5761 5760 5758 5755 5754 5751 5749 5747 5745 5742 5739 5736 5733 5729 5725 5721 5718 5714 5708 5702 5697 5690 5685 5680 5677
5686 5694 5703 5713 5715 5722 5727 5731 5734 5736 5734 5734 5752 5748 5757 5755 5758 5757 5758 5759 5755 5753 5751 5748 5747 5745 5744 5741 5739 5736 5733 5730 5727 5723 5719 5716 5711 5706 5700 5694 5688 5684 5680 5677
5680 5689 5696 5704 5709 5717 5723 5726 5727 5726 5729 5740 5745 5744 5753 5752 5751 5752 5755 5754 5752 5750 5748 5746 5744 5742 5741 5738 5736 5733 5731 5728 5724 5722 5718 5715 5709 5704 5698 5692 5688 5684 5681 5679
5672 5679 5688 5696 5704 5711 5717 5712 5725 5728 5733 5734 5736 5746 5745 5747 5748 5751 5752 5751 5749 5747 5745 5742 5741 5739 5738 5736 5733 5731 5729 5726 5723 5720 5716 5712 5708 5703 5697 5693 5688 5685 5683 5683
5665 5671 5681 5690 5694 5698 5704 5706 5716 5716 5720 5724 5735 5739 5742 5744 5745 5747 5749 5748 5745 5745 5742 5739 5737 5736 5736 5733 5732 5729 5726 5723 5721 5718 5715 5711 5708 5702 5697 5693 5689 5687 5686 5686
5650 5660 5673 5679 5683 5691 5694 5693 5705 5712 5716 5723 5731 5737 5739 5739 5743 5745 5745 5745 5744 5743 5738 5736 5736 5736 5734 5732 5730 5727 5725 5723 5721 5717 5714 5711 5708 5703 5699 5695 5691 5689 5689 5690
5637 5648 5661 5673 5675 5683 5687 5696 5704 5707 5714 5721 5727 5733 5733 5736 5739 5741 5741 5742 5742 5739 5736 5736 5735 5734 5733 5731 5729 5727 5725 5722 5721 5718 5715 5713 5709 5705 5701 5698 5694 5693 5692 5694
5623 5636 5650 5658 5665 5672 5683 5690 5695 5703 5709 5714 5721 5729 5730 5733 5735 5738 5737 5740 5739 5735 5734 5734 5734 5732 5731 5730 5728 5727 5725 5723 5722 5718 5716 5714 5711 5706 5703 5701 5699 5696 5696 5698
5614 5627 5641 5651 5664 5676 5678 5683 5689 5697 5702 5713 5717 5724 5726 5730 5733 5736 5735 5738 5736 5734 5734 5733 5732 5731 5730 5729 5728 5727 5725 5724 5721 5719 5717 5715 5713 5709 5706 5705 5704 5702 5701 5702
5610 5625 5637 5651 5659 5667 5675 5682 5688 5691 5701 5704 5717 5720 5723 5727 5732 5732 5733 5734 5735 5733 5733 5732 5731 5731 5730 5729 5729 5728 5725 5724 5722 5720 5718 5717 5715 5712 5710 5709 5708 5707 5707 5707
5604 5616 5627 5641 5651 5659 5665 5674 5681 5689 5696 5702 5709 5714 5720 5724 5727 5729 5730 5733 5734 5733 5731 5730 5730 5730 5730 5729 5729 5729 5726 5724 5723 5722 5721 5719 5718 5716 5715 5714 5713 5712 5711 5711
5596 5608 5619 5636 5646 5653 5652 5662 5673 5685 5692 5699 5703 5712 5716 5718 5723 5726 5729 5731 5731 5732 5730 5729 5729 5730 5731 5730 5730 5730 5728 5726 5725 5725 5724 5722 5721 5720 5720 5718 5717 5716 5714 5715
5588 5600 5613 5629 5635 5635 5654 5664 5670 5680 5689 5697 5702 5708 5713 5717 5720 5723 5727 5729 5730 5730 5729 5729 5729 5730 5731 5731 5731 5731 5730 5729 5728 5728 5727 5725 5725 5725 5724 5722 5720 5720 5720 5720
5581 5592 5608 5620 5625 5639 5649 5657 5662 5671 5683 5691 5696 5704 5710 5714 5715 5718 5724 5726 5727 5728 5728 5728 5729 5730 5731 5732 5732 5732 5732 5731 5730 5731 5731 5729 5729 5728 5728 5728 5727 5726 5725 5724
5579 5588 5601 5610 5622 5629 5638 5649 5657 5667 5673 5682 5689 5695 5704 5707 5708 5716 5721 5723 5725 5726 5727 5727 5728 5730 5732 5733 5733 5732 5733 5733 5732 5733 5733 5733 5733 5733 5732 5732 5732 5732 5732 5731
5574 5583 5594 5601 5613 5622 5633 5642 5653 5660 5669 5673 5681 5686 5693 5698 5707 5714 5716 5720 5722 5725 5726 5726 5727 5729 5731 5733 5733 5733 5734 5734 5734 5735 5735 5735 5736 5737 5737 5737 5737 5736 5736 5737
5569 5580 5588 5596 5608 5616 5627 5635 5648 5652 5660 5668 5674 5680 5686 5694 5703 5707 5711 5715 5719 5721 5724 5725 5725 5728 5730 5731 5733 5733 5734 5735 5735 5736 5737 5737 5738 5739 5739 5740 5740 5741 5740 5741
5565 5569 5581 5593 5603 5611 5619 5629 5638 5646 5653 5662 5668 5675 5682 5689 5694 5701 5707 5710 5715 5719 5720 5722 5724 5726 5728 5730 5731 5733 5733 5734 5735 5736 5737 5738 5739 5741 5742 5742 5742 5743 5744 5745
5549 5562 5575 5590 5595 5606 5614 5622 5632 5639 5647 5655 5663 5670 5678 5684 5689 5695 5700 5705 5709 5714 5716 5719 5722 5723 5725 5727 5728 5731 5732 5733 5734 5736 5737 5739 5740 5741 5743 5745 5746 5746 5747 5748
5543 5557 5570 5582 5589 5599 5608 5618 5626 5632 5641 5649 5657 5665 5672 5679 5684 5689 5693 5700 5705 5710 5713 5715 5718 5720 5722 5724 5726 5728 5730 5732 5733 5734 5736 5738 5740 5742 5744 5745 5747 5749 5749 5751
5538 5550 5562 5574 5578 5588 5598 5610 5619 5626 5634 5644 5652 5658 5666 5673 5678 5684 5689 5694 5699 5704 5709 5711 5713 5716 5718 5720 5724 5725 5727 5729 5731 5734 5735 5736 5739 5741 5744 5746 5747 5748 5750 5751
Wind_Speed
54 57 57 56 55 57 56 52 45 29 18 33 33 31 18 27 28 18 11 12 12 16 12 18 20 25 32 37 33 29 27 29 30 30 29 29 31 30 31 33 29 25 19 21
39 45 42 47 52 55 54 52 42 29 15 35 31 32 25 26 25 15 11 9 14 17 13 17 23 29 34 40 34 27 27 27 26 27 27 28 29 28 32 26 21 20 21 23
43 29 29 32 39 46 48 47 32 28 19 35 38 34 27 26 18 11 10 11 14 13 15 18 25 34 40 41 29 25 25 23 25 25 25 27 26 25 26 25 23 25 29 27
46 38 34 30 34 38 42 28 26 28 27 33 38 43 27 25 12 15 14 16 10 12 13 18 25 30 35 28 22 21 21 24 23 23 24 26 23 24 23 25 25 26 26 17
45 37 34 32 24 29 26 28 30 28 32 36 35 41 15 19 12 16 18 10 9 8 12 17 21 24 21 20 20 20 22 22 22 22 24 23 21 22 22 25 23 21 21 17
50 43 38 33 28 37 34 33 32 33 37 47 31 38 9 16 18 14 4 7 11 8 14 22 18 18 19 17 18 18 20 20 21 23 22 18 19 21 22 24 20 18 17 11
55 53 44 35 36 38 39 38 38 41 46 46 26 32 14 16 12 6 5 7 11 9 16 14 14 17 16 15 14 18 19 20 19 20 15 16 19 19 21 19 18 18 14 8
47 49 48 40 39 37 37 41 44 47 48 37 28 24 13 17 8 5 4 7 7 10 12 13 14 13 12 11 15 17 17 16 18 17 14 17 18 16 21 16 17 16 10 4
47 44 42 40 38 37 38 48 41 41 37 39 35 21 23 10 4 2 4 4 7 13 18 17 14 13 12 11 15 15 16 15 18 16 14 16 13 16 17 13 16 9 8 9
45 42 38 34 33 37 40 45 42 45 43 40 28 24 15 9 5 4 4 4 9 16 19 11 12 12 7 11 11 14 14 14 16 12 11 10 10 17 16 12 8 11 9 11
52 45 35 37 38 38 42 47 44 42 39 34 25 21 16 11 10 5 2 6 11 15 11 9 11 10 11 9 10 13 11 12 11 11 6 8 9 15 13 12 8 11 10 12
58 52 40 35 40 37 41 40 36 39 34 30 26 20 20 14 7 5 4 4 16 12 12 9 11 11 12 8 9 11 9 9 9 7 5 7 9 11 11 14 10 10 11 12
64 59 50 39 43 41 39 37 39 35 36 35 30 20 20 13 8 6 5 5 13 15 16 9 9 8 11 6 8 9 5 4 7 8 5 5 8 12 9 15 15 12 14 13
68 63 56 50 42 37 40 42 42 39 38 26 24 23 17 17 14 11 5 4 8 13 10 9 7 7 8 4 7 8 5 6 8 4 2 5 7 12 12 15 15 19 15 13
67 63 57 48 42 39 40 39 38 39 30 33 20 23 19 18 14 9 6 1 6 8 10 9 6 5 6 3 6 7 5 5 7 6 3 6 8 12 14 15 16 17 15 15
66 64 62 56 48 45 43 42 40 37 32 29 24 21 19 21 17 11 6 3 2 6 10 6 5 3 5 2 4 5 4 6 6 7 5 6 8 13 15 14 14 13 13 11
66 64 64 60 51 48 53 49 43 36 34 28 27 21 23 24 15 12 6 3 3 3 8 5 4 2 4 3 3 3 3 6 6 4 5 11 10 12 11 8 8 10 10 14
69 66 64 60 56 58 54 46 42 39 34 27 24 19 18 26 21 14 10 6 1 2 6 5 3 3 1 4 4 3 2 6 8 5 10 15 15 15 15 17 16 12 13 13
70 70 66 62 59 60 54 48 48 44 39 33 25 15 19 18 28 24 14 8 5 1 5 5 2 5 3 4 4 4 2 4 8 9 8 14 13 13 14 17 19 20 19 17
65 65 67 65 59 61 57 53 49 45 43 37 29 22 20 23 30 21 15 11 8 3 4 6 2 6 6 1 3 4 3 2 7 9 8 8 9 10 13 15 18 18 18 19
62 61 63 57 60 60 58 56 49 46 45 38 37 32 33 31 22 21 17 13 11 8 7 5 2 3 11 8 2 4 4 4 4 8 9 11 10 11 13 15 15 15 16 16
57 59 57 53 57 57 58 54 52 48 43 39 36 35 33 26 22 26 19 16 14 12 10 4 2 4 6 13 8 5 6 5 6 6 7 8 11 10 11 12 11 11 11 12
53 61 61 51 54 58 53 58 57 52 46 43 35 41 38 30 31 26 20 18 15 14 12 9 5 1 5 9 12 8 7 7 7 9 7 6 8 9 9 9 11 12 15 16
48 72 63 52 53 59 58 57 56 51 50 48 41 36 35 36 31 26 21 20 19 14 15 13 9 5 2 6 10 12 10 9 7 10 10 8 6 9 10 11 12 15 15 15
42 71 67 60 53 55 54 60 49 51 51 47 43 45 42 38 35 32 24 20 19 16 17 16 15 10 5 5 10 10 13 13 11 9 12 12 9 9 9 11 14 14 14 14
33 63 70 67 53 60 61 61 65 57 46 48 43 41 39 38 36 32 33 29 25 22 19 22 20 15 9 8 9 13 10 15 15 12 12 13 13 12 12 12 14 14 14 14
Wind_Direction
241 244 246 249 252 255 256 262 261 235 246 259 259 264 257 260 268 260 248 257 284 311 318 314 316 323 318 322 316 305 300 307 307 309 312 312 313 314 312 312 314 310 299 305
246 247 252 254 252 253 251 254 256 227 238 257 252 254 258 270 270 271 260 279 305 307 301 302 314 309 305 313 310 297 308 311 311 309 312 313 316 317 321 325 325 321 311 310
248 260 253 248 247 247 247 249 243 234 229 246 258 261 266 271 262 266 255 290 294 302 307 301 293 291 298 305 299 302 308 311 308 312 312 315 318 319 319 329 329 323 314 305
244 242 242 251 244 240 242 226 242 244 238 242 256 264 256 260 261 267 280 280 300 298 295 293 288 286 295 297 301 310 310 310 311 307 309 317 314 321 326 333 332 322 326 322
238 241 244 248 254 228 213 237 246 239 234 241 234 260 253 246 254 272 268 273 278 284 307 293 287 295 290 293 310 309 313 313 306 301 310 311 319 323 331 334 331 320 326 326
234 232 233 235 235 224 223 236 238 234 233 241 235 251 214 228 241 248 241 270 259 287 304 311 290 290 290 299 306 310 316 312 303 307 310 310 320 325 332 334 327 325 333 340
225 228 229 230 233 225 228 231 231 235 236 243 243 242 201 221 215 196 241 267 286 329 323 315 300 290 289 302 307 316 316 308 306 315 310 321 323 329 333 335 329 337 343 354
231 231 231 228 231 232 229 236 236 236 235 245 233 234 210 212 192 176 219 269 320 334 323 305 313 302 306 306 319 315 312 308 307 312 307 320 322 335 341 337 335 344 4 65
224 225 226 231 234 232 234 233 236 241 241 246 244 221 212 215 208 205 210 298 340 331 319 291 299 308 296 315 312 308 310 300 308 314 304 312 327 333 349 339 342 10 47 110
223 227 223 221 225 213 220 236 222 225 226 234 228 220 195 212 232 208 255 330 355 311 314 307 322 315 313 312 303 311 311 307 313 321 319 319 334 351 351 2 12 46 78 123
212 216 213 210 215 213 216 218 213 224 230 230 224 222 203 210 226 196 173 339 327 308 340 327 323 311 321 304 308 316 313 308 334 343 336 334 354 10 25 37 45 51 95 124
208 209 205 205 216 211 212 222 219 226 221 221 223 196 204 209 202 190 136 314 300 333 351 311 316 304 316 298 306 318 310 307 2 351 359 12 12 22 38 49 29 75 106 125
206 205 195 202 210 208 207 205 211 218 223 222 225 178 205 209 212 214 130 281 302 338 346 285 310 309 320 295 307 316 316 352 357 358 355 25 31 40 50 62 73 91 105 116
203 201 198 199 201 202 205 207 211 212 220 218 221 180 202 214 226 219 158 241 322 326 342 290 317 311 327 293 313 308 300 352 356 5 354 40 40 55 76 83 82 81 99 110
200 201 200 195 200 199 205 210 215 220 218 223 211 218 211 222 223 200 194 159 303 329 319 315 311 315 341 287 314 306 323 4 23 36 78 53 64 65 85 92 94 92 96 100
195 196 200 192 196 197 202 206 212 219 221 225 220 211 218 232 220 214 178 181 294 318 315 328 317 307 348 299 307 319 356 42 50 64 57 52 84 81 96 92 83 95 101 106
191 194 198 191 194 198 205 202 210 214 218 219 214 206 212 233 207 213 197 171 44 316 360 18 323 253 359 348 284 320 28 61 68 53 65 94 95 84 89 93 95 107 89 122
195 196 198 189 192 202 205 203 209 213 218 219 221 213 213 231 240 233 222 183 268 330 355 41 342 227 347 20 308 283 37 68 80 81 105 103 101 93 80 79 87 114 110 107
199 198 199 193 197 205 206 204 207 212 216 216 214 226 223 228 234 232 219 194 195 293 304 8 15 225 239 39 353 291 278 81 102 112 122 113 108 104 96 90 93 95 94 101
200 197 200 199 197 205 204 204 210 213 216 217 205 204 236 227 230 230 206 199 211 190 270 343 310 216 235 254 15 323 273 152 123 126 131 122 112 108 104 102 101 101 100 101
203 199 200 203 196 204 202 207 205 212 215 212 208 201 221 230 226 228 216 193 215 194 223 311 29 256 227 233 288 324 283 229 164 140 135 130 125 127 117 107 103 102 102 101
200 204 202 207 198 203 198 204 202 213 216 213 206 208 209 206 215 220 213 209 196 206 208 238 313 222 245 240 249 289 284 236 217 188 157 146 142 144 139 132 126 117 115 116
191 205 203 203 202 201 202 203 204 210 214 213 211 213 209 204 208 204 211 219 218 203 209 204 248 246 238 259 237 256 264 247 225 225 205 181 157 157 148 141 138 132 124 120
184 202 203 199 203 204 204 201 203 209 212 216 214 209 205 203 206 205 208 211 220 210 213 213 216 247 170 226 242 242 248 246 233 225 227 216 185 162 151 147 146 139 134 129
173 197 203 199 201 204 207 202 194 202 204 212 215 216 218 218 216 217 210 208 217 218 216 219 223 226 229 220 233 237 243 237 242 221 222 225 206 182 167 160 158 153 148 145
186 181 196 197 194 205 207 203 206 211 211 213 213 211 218 219 219 226 225 220 225 228 213 216 222 228 219 231 224 237 246 235 232 229 222 222 217 198 191 187 184 183 181 171